Terug naar catalogus

COSMOS 2251 DEB

ActiefLEO
NORAD 34430·DEBRIS·🇷🇺 Russia

Gelanceerd Jun 16, 1993 vanaf Plesetsk Cosmodrome

Loading…

Volgende Passages (komende 24 uur)

TLE

VersSource: Space-Track

Epoch: Sep 14, 2026, 03:35 UTC

1 34430U 93036RX  26257.14999773  .00000609  00000-0  19654-3 0  9999
2 34430  74.0516 154.9297 0060460 158.7619 201.6067 14.40215628919193

Volg COSMOS 2251 DEB in realtime met AllMySat

Download on the App Store